This demonstration page uses our WeatherBlox Daily Observations layout. Learn more.

Left ArrowRight Arrow

34.02893, -84.19858

Hourly Observations for October 20, 2015

Temp ( °F °C ) Dew Point ( °F °C ) Humidity (%) Winds ( mph kmh ) Pressure ( in mb ) Visibility ( mi km ) Precip ( " mm )
12:53 am 00:53 Clear 47 8.3 39 3.9 74 74 E 3 6 30.40 1030 10 16 0.00 0.00
1:53 am 01:53 Clear 44 6.7 38 3.3 79 79 Calm 30.40 1030 10 16 0.00 0.00
2:53 am 02:53 Clear 43 6.1 38 3.3 82 82 Calm 30.41 1030 10 16 0.00 0.00
3:53 am 03:53 Clear 45 7.2 38 3.3 77 77 Calm 30.40 1030 10 16 0.00 0.00
4:53 am 04:53 Clear 42 5.6 37 2.8 82 82 Calm 30.40 1029 10 16 0.00 0.00
5:53 am 05:53 Clear 42 5.6 38 3.3 85 85 Calm 30.41 1030 10 16 0.00 0.00
6:53 am 06:53 Clear 39 3.9 37 2.8 93 93 Calm 30.43 1031 10 16 0.00 0.00
7:53 am 07:53 Sunny 39 3.9 38 3.3 96 96 Calm 30.43 1031 10 16 0.00 0.00
8:53 am 08:53 Sunny 47 8.3 39 3.9 74 74 Calm 30.44 1031 10 16 0.00 0.00
9:53 am 09:53 Sunny 52 11.1 40 4.4 64 64 ESE 3 6 30.44 1031 10 16 0.00 0.00
10:53 am 10:53 Sunny 57 13.9 39 3.9 51 51 VRB 3 6 30.43 1031 10 16 0.00 0.00
11:53 am 11:53 Sunny 60 15.6 38 3.3 44 44 SSE 7 11 30.42 1030 10 16 0.00 0.00
12:53 pm 12:53 Sunny 64 17.8 40 4.4 41 41 Calm 30.39 1029 10 16 0.00 0.00
1:53 pm 13:53 Sunny 67 19.4 43 6.1 42 42 N 6 9 30.36 1028 10 16 0.00 0.00
2:53 pm 14:53 Sunny 68 20 43 6.1 40 40 VRB 5 7 30.32 1027 10 16 0.00 0.00
3:53 pm 15:53 Sunny 68 20 43 6.1 40 40 E 3 6 30.30 1026 10 16 0.00 0.00
4:53 pm 16:53 Sunny 70 21.1 43 6.1 38 38 Calm 30.29 1026 10 16 0.00 0.00
5:53 pm 17:53 Sunny 67 19.4 44 6.7 44 44 ESE 5 7 30.30 1026 10 16 0.00 0.00
6:53 pm 18:53 Sunny 62 16.7 46 7.8 56 56 Calm 30.31 1027 10 16 0.00 0.00
7:53 pm 19:53 Clear 56 13.3 47 8.3 72 72 Calm 30.33 1027 10 16 0.00 0.00
8:53 pm 20:53 Clear 53 11.7 47 8.3 80 80 Calm 30.32 1027 10 16 0.00 0.00
9:53 pm 21:53 Clear 48 8.9 46 7.8 93 93 Calm 30.34 1027 10 16 0.00 0.00
10:53 pm 22:53 Clear 50 10 46 7.8 86 86 Calm 30.33 1027 10 16 0.00 0.00
11:53 pm 23:53 Clear 47 8.3 45 7.2 93 93 Calm 30.33 1027 10 16 0.00 0.00

Powered by AerisWeather